Time,TemperatureF,DewpointF,PressureIn,WindDirection,WindDirectionDegrees,WindSpeedMPH,WindSpeedGustMPH,Humidity,HourlyPrecipIn,Conditions,Clouds,dailyrainin,SolarRadiationWatts/m^2,SoftwareType,DateUTC
2013-09-06 00:09:00,78.6,-99.9,29.72,WSW,240,0.0,0.0,0,0.00,,,0.00,0,Wunderground v.1.15,2013-09-05 17:09:00,
2013-09-06 00:19:00,78.5,-99.9,29.72,WSW,240,0.0,0.0,0,0.00,,,0.00,0,Wunderground v.1.15,2013-09-05 17:19:00,
2013-09-06 00:24:00,78.4,-99.9,29.72,WSW,240,0.0,0.0,0,0.00,,,0.00,0,Wunderground v.1.15,2013-09-05 17:24:00,
2013-09-06 00:34:00,78.4,-99.9,29.72,WSW,240,0.0,0.0,0,0.00,,,0.00,0,Wunderground v.1.15,2013-09-05 17:34:00,
2013-09-06 00:44:00,78.4,-99.9,29.72,WSW,240,0.0,0.0,0,0.00,,,0.00,0,Wunderground v.1.15,2013-09-05 17:44:00,
2013-09-06 00:54:00,78.3,-99.9,29.71,WSW,240,0.0,0.0,0,0.00,,,0.00,0,Wunderground v.1.15,2013-09-05 17:54:00,
2013-09-06 01:04:00,78.7,-99.9,29.71,WSW,240,0.0,0.0,0,0.00,,,0.00,0,Wunderground v.1.15,2013-09-05 18:04:00,
2013-09-06 01:14:00,78.7,-99.9,29.71,WSW,240,0.0,0.0,0,0.00,,,0.00,0,Wunderground v.1.15,2013-09-05 18:14:00,
2013-09-06 01:24:00,78.1,-99.9,29.70,WSW,240,0.0,0.0,0,0.00,,,0.00,0,Wunderground v.1.15,2013-09-05 18:24:00,
2013-09-06 01:34:00,78.5,-99.9,29.70,WSW,240,0.0,0.0,0,0.00,,,0.00,0,Wunderground v.1.15,2013-09-05 18:34:00,
2013-09-06 01:39:00,78.3,-99.9,29.70,WSW,240,0.0,0.0,0,0.00,,,0.00,0,Wunderground v.1.15,2013-09-05 18:39:00,
2013-09-06 01:49:00,78.4,-99.9,29.70,WSW,240,0.0,0.0,0,0.00,,,0.00,0,Wunderground v.1.15,2013-09-05 18:49:00,
2013-09-06 01:59:00,78.7,-99.9,29.70,WSW,240,0.0,0.0,0,0.00,,,0.00,0,Wunderground v.1.15,2013-09-05 18:59:00,
2013-09-06 02:09:00,78.4,-99.9,29.69,WSW,240,0.0,0.0,0,0.00,,,0.00,0,Wunderground v.1.15,2013-09-05 19:09:00,
2013-09-06 02:19:00,78.6,-99.9,29.69,WSW,240,0.0,0.0,0,0.00,,,0.00,0,Wunderground v.1.15,2013-09-05 19:19:00,
2013-09-06 02:29:00,78.8,-99.9,29.69,WSW,240,0.0,0.0,0,0.00,,,0.00,0,Wunderground v.1.15,2013-09-05 19:29:00,
2013-09-06 02:39:00,78.6,-99.9,29.69,WSW,240,0.0,0.0,0,0.00,,,0.00,0,Wunderground v.1.15,2013-09-05 19:39:00,
2013-09-06 02:49:00,78.4,-99.9,29.68,WSW,240,0.0,0.0,0,0.00,,,0.00,0,Wunderground v.1.15,2013-09-05 19:49:00,
2013-09-06 02:59:00,78.0,-99.9,29.68,WSW,240,0.0,1.0,0,0.00,,,0.00,0,Wunderground v.1.15,2013-09-05 19:59:00,
2013-09-06 03:04:00,77.9,-99.9,29.67,WSW,240,0.0,0.0,0,0.00,,,0.00,0,Wunderground v.1.15,2013-09-05 20:04:00,
2013-09-06 03:14:00,78.0,-99.9,29.67,WSW,240,0.0,0.0,0,0.00,,,0.00,0,Wunderground v.1.15,2013-09-05 20:14:00,
2013-09-06 03:24:00,78.0,-99.9,29.67,WSW,240,0.0,0.0,0,0.00,,,0.00,0,Wunderground v.1.15,2013-09-05 20:24:00,
2013-09-06 03:34:00,78.1,-99.9,29.67,WSW,240,0.0,0.0,0,0.00,,,0.00,0,Wunderground v.1.15,2013-09-05 20:34:00,
2013-09-06 03:44:00,78.3,-99.9,29.67,WSW,240,0.0,0.0,0,0.00,,,0.00,0,Wunderground v.1.15,2013-09-05 20:44:00,
2013-09-06 03:54:00,78.5,-99.9,29.67,WSW,240,0.0,0.0,0,0.00,,,0.00,0,Wunderground v.1.15,2013-09-05 20:54:00,
2013-09-06 04:04:00,78.4,-99.9,29.68,WSW,240,0.0,0.0,0,0.00,,,0.00,0,Wunderground v.1.15,2013-09-05 21:04:00,
2013-09-06 04:14:00,78.3,-99.9,29.68,WSW,240,0.0,0.0,0,0.00,,,0.00,0,Wunderground v.1.15,2013-09-05 21:14:00,
2013-09-06 04:24:00,78.1,-99.9,29.67,WSW,240,0.0,1.0,0,0.00,,,0.00,0,Wunderground v.1.15,2013-09-05 21:24:00,
2013-09-06 04:29:00,78.2,-99.9,29.67,WSW,240,1.0,1.0,0,0.00,,,0.00,0,Wunderground v.1.15,2013-09-05 21:29:00,
2013-09-06 04:39:00,78.1,-99.9,29.68,WNW,294,0.0,2.0,0,0.00,,,0.00,0,Wunderground v.1.15,2013-09-05 21:39:00,
2013-09-06 04:49:00,78.0,-99.9,29.67,WNW,294,1.0,1.0,0,0.00,,,0.00,0,Wunderground v.1.15,2013-09-05 21:49:00,
2013-09-06 04:59:00,78.0,-99.9,29.67,WNW,294,0.0,1.0,0,0.00,,,0.00,0,Wunderground v.1.15,2013-09-05 21:59:00,
2013-09-06 05:04:00,78.0,-99.9,29.67,WNW,294,0.0,0.0,0,0.00,,,0.00,0,Wunderground v.1.15,2013-09-05 22:04:00,
2013-09-06 05:14:00,78.1,-99.9,29.67,WNW,295,0.0,0.0,0,0.00,,,0.00,0,Wunderground v.1.15,2013-09-05 22:14:00,
2013-09-06 05:19:00,78.2,-99.9,29.66,WNW,295,0.0,0.0,0,0.00,,,0.00,0,Wunderground v.1.15,2013-09-05 22:19:00,
2013-09-06 05:29:00,77.9,-99.9,29.66,WNW,294,0.0,1.0,0,0.00,,,0.00,0,Wunderground v.1.15,2013-09-05 22:29:00,
2013-09-06 05:39:00,78.0,-99.9,29.67,SW,216,0.0,0.0,0,0.00,,,0.00,0,Wunderground v.1.15,2013-09-05 22:39:00,
2013-09-06 05:44:00,78.1,-99.9,29.67,SW,216,0.0,0.0,0,0.00,,,0.00,0,Wunderground v.1.15,2013-09-05 22:44:00,
2013-09-06 05:54:00,78.1,-99.9,29.67,SW,216,0.0,0.0,0,0.00,,,0.00,0,Wunderground v.1.15,2013-09-05 22:54:00,
2013-09-06 06:04:00,78.2,-99.9,29.68,SW,216,0.0,0.0,0,0.00,,,0.00,0,Wunderground v.1.15,2013-09-05 23:04:00,
2013-09-06 06:14:00,78.5,-99.9,29.68,SW,216,0.0,0.0,0,0.00,,,0.00,0,Wunderground v.1.15,2013-09-05 23:14:00,
2013-09-06 06:19:00,78.3,-99.9,29.69,SW,216,0.0,0.0,0,0.00,,,0.00,0,Wunderground v.1.15,2013-09-05 23:19:00,
2013-09-06 06:29:00,78.4,-99.9,29.69,SW,216,0.0,0.0,0,0.00,,,0.00,5,Wunderground v.1.15,2013-09-05 23:29:00,
2013-09-06 06:39:00,78.3,-99.9,29.69,SW,216,0.0,0.0,0,0.00,,,0.00,16,Wunderground v.1.15,2013-09-05 23:39:00,
2013-09-06 06:49:00,78.4,-99.9,29.70,SW,216,0.0,0.0,0,0.00,,,0.00,30,Wunderground v.1.15,2013-09-05 23:49:00,
2013-09-06 06:59:00,78.5,-99.9,29.70,SW,216,0.0,0.0,0,0.00,,,0.00,37,Wunderground v.1.15,2013-09-05 23:59:00,
2013-09-06 07:09:00,78.6,-99.9,29.70,SW,216,0.0,0.0,0,0.00,,,0.00,49,Wunderground v.1.15,2013-09-06 00:09:00,
2013-09-06 07:14:00,78.9,-99.9,29.70,SW,216,0.0,0.0,0,0.00,,,0.00,49,Wunderground v.1.15,2013-09-06 00:14:00,
2013-09-06 07:24:00,78.8,-99.9,29.71,North,0,0.0,0.0,0,0.00,,,0.00,63,Wunderground v.1.15,2013-09-06 00:24:00,
2013-09-06 07:34:00,78.8,-99.9,29.72,North,0,1.0,1.0,0,0.00,,,0.00,83,Wunderground v.1.15,2013-09-06 00:34:00,
2013-09-06 07:44:00,78.9,-99.9,29.72,North,0,1.0,1.0,0,0.00,,,0.00,86,Wunderground v.1.15,2013-09-06 00:44:00,
2013-09-06 07:54:00,78.9,-99.9,29.72,North,0,0.0,0.0,0,0.00,,,0.00,118,Wunderground v.1.15,2013-09-06 00:54:00,
2013-09-06 08:04:00,79.1,-99.9,29.73,North,0,0.0,0.0,0,0.00,,,0.00,155,Wunderground v.1.15,2013-09-06 01:04:00,
2013-09-06 08:09:00,79.1,-99.9,29.73,North,0,0.0,0.0,0,0.00,,,0.00,169,Wunderground v.1.15,2013-09-06 01:09:00,
2013-09-06 08:19:00,79.4,-99.9,29.74,North,0,0.0,0.0,0,0.00,,,0.00,181,Wunderground v.1.15,2013-09-06 01:19:00,
2013-09-06 08:28:00,79.8,-99.9,29.74,North,0,1.0,2.0,0,0.00,,,0.00,197,Wunderground v.1.15,2013-09-06 01:28:00,
2013-09-06 08:33:00,79.9,-99.9,29.73,North,1,2.0,2.0,0,0.00,,,0.00,195,Wunderground v.1.15,2013-09-06 01:33:00,
2013-09-06 08:43:00,80.5,-99.9,29.73,North,8,1.0,1.0,0,0.00,,,0.00,213,Wunderground v.1.15,2013-09-06 01:43:00,
2013-09-06 08:48:00,80.5,-99.9,29.73,NNE,23,1.0,2.0,0,0.00,,,0.00,237,Wunderground v.1.15,2013-09-06 01:48:00,
2013-09-06 08:58:00,80.7,-99.9,29.73,NNE,17,1.0,2.0,0,0.00,,,0.00,246,Wunderground v.1.15,2013-09-06 01:58:00,
2013-09-06 09:03:00,80.9,-99.9,29.74,NW,319,1.0,3.0,0,0.00,,,0.00,258,Wunderground v.1.15,2013-09-06 02:03:00,
2013-09-06 09:13:00,81.3,32.3,29.74,NNE,17,1.0,1.0,17,0.00,,,0.00,260,Wunderground v.1.15,2013-09-06 02:13:00,
2013-09-06 09:23:00,81.3,50.2,29.74,NNE,25,0.0,2.0,34,0.00,,,0.00,229,Wunderground v.1.15,2013-09-06 02:23:00,
2013-09-06 09:28:00,81.2,50.9,29.74,East,94,1.0,2.0,35,0.00,,,0.00,202,Wunderground v.1.15,2013-09-06 02:28:00,
2013-09-06 09:38:00,81.4,43.2,29.74,East,99,0.0,1.0,26,0.00,,,0.00,118,Wunderground v.1.15,2013-09-06 02:38:00,
2013-09-06 09:48:00,81.3,46.9,29.74,East,98,0.0,0.0,30,0.00,,,0.00,188,Wunderground v.1.15,2013-09-06 02:48:00,
2013-09-06 09:58:00,81.1,51.6,29.74,SW,223,0.0,0.0,36,0.00,,,0.00,253,Wunderground v.1.15,2013-09-06 02:58:00,
2013-09-06 10:08:00,81.3,46.9,29.74,NNE,31,0.0,1.0,30,0.00,,,0.00,279,Wunderground v.1.15,2013-09-06 03:08:00,
2013-09-06 10:18:00,81.5,54.8,29.74,NNE,18,2.0,3.0,40,0.00,,,0.00,308,Wunderground v.1.15,2013-09-06 03:18:00,
2013-09-06 10:28:00,81.8,60.8,29.74,North,1,3.0,5.0,49,0.00,,,0.00,301,Wunderground v.1.15,2013-09-06 03:28:00,
2013-09-06 10:38:00,82.1,65.9,29.74,NNE,21,2.0,2.0,58,0.00,,,0.00,308,Wunderground v.1.15,2013-09-06 03:38:00,
2013-09-06 10:48:00,82.5,68.6,29.74,North,8,1.0,1.0,63,0.00,,,0.00,323,Wunderground v.1.15,2013-09-06 03:48:00,
2013-09-06 10:53:00,82.6,67.8,29.74,NNW,345,1.0,1.0,61,0.00,,,0.00,332,Wunderground v.1.15,2013-09-06 03:53:00,
2013-09-06 11:03:00,82.9,69.0,29.74,North,4,1.0,1.0,63,0.00,,,0.00,322,Wunderground v.1.15,2013-09-06 04:03:00,
2013-09-06 11:08:00,82.9,69.9,29.74,North,10,1.0,1.0,65,0.00,,,0.00,207,Wunderground v.1.15,2013-09-06 04:08:00,
2013-09-06 11:13:00,82.5,69.5,29.74,NNE,27,2.0,5.0,65,0.00,,,0.00,246,Wunderground v.1.15,2013-09-06 04:13:00,
2013-09-06 11:23:00,82.4,68.5,29.74,WNW,294,1.0,1.0,63,0.00,,,0.00,244,Wunderground v.1.15,2013-09-06 04:23:00,
2013-09-06 11:33:00,82.5,68.6,29.73,SSE,158,1.0,2.0,63,0.00,,,0.00,214,Wunderground v.1.15,2013-09-06 04:33:00,
2013-09-06 11:38:00,82.3,67.5,29.73,WSW,254,1.0,2.0,61,0.00,,,0.00,148,Wunderground v.1.15,2013-09-06 04:38:00,
2013-09-06 11:48:00,81.8,66.1,29.73,WNW,297,1.0,3.0,59,0.00,,,0.00,207,Wunderground v.1.15,2013-09-06 04:48:00,
2013-09-06 11:58:00,81.5,67.7,29.73,SSE,153,3.0,3.0,63,0.00,,,0.00,183,Wunderground v.1.15,2013-09-06 04:58:00,
2013-09-06 12:03:00,81.2,66.9,29.72,ESE,108,3.0,3.0,62,0.00,,,0.00,139,Wunderground v.1.15,2013-09-06 05:03:00,
2013-09-06 12:13:00,80.8,67.9,29.72,WSW,240,2.0,2.0,65,0.00,,,0.00,248,Wunderground v.1.15,2013-09-06 05:13:00,
2013-09-06 12:18:00,80.7,66.0,29.72,ENE,58,2.0,2.0,61,0.00,,,0.00,309,Wunderground v.1.15,2013-09-06 05:18:00,
2013-09-06 12:28:00,80.4,65.7,29.72,South,191,3.0,9.0,61,0.00,,,0.00,436,Wunderground v.1.15,2013-09-06 05:28:00,
2013-09-06 12:38:00,80.7,63.5,29.71,SE,142,3.0,5.0,56,0.00,,,0.00,534,Wunderground v.1.15,2013-09-06 05:38:00,
2013-09-06 12:48:00,81.3,65.6,29.70,SSE,152,3.0,7.0,59,0.00,,,0.00,649,Wunderground v.1.15,2013-09-06 05:48:00,
2013-09-06 12:58:00,81.3,69.3,29.70,SSE,167,3.0,5.0,67,0.00,,,0.00,552,Wunderground v.1.15,2013-09-06 05:58:00,
2013-09-06 13:13:00,81.1,69.1,29.69,SW,228,4.0,4.0,67,0.00,,,0.00,480,Wunderground v.1.15,2013-09-06 06:13:00,
2013-09-06 13:18:00,81.3,68.0,29.69,South,184,4.0,4.0,64,0.00,,,0.00,740,Wunderground v.1.15,2013-09-06 06:18:00,
2013-09-06 13:28:00,81.6,69.6,29.69,SSE,160,5.0,10.0,67,0.00,,,0.00,988,Wunderground v.1.15,2013-09-06 06:28:00,
2013-09-06 13:38:00,82.3,72.4,29.68,South,169,7.0,10.0,72,0.00,,,0.00,1125,Wunderground v.1.15,2013-09-06 06:38:00,
2013-09-06 13:48:00,82.7,74.0,29.67,SSE,153,5.0,7.0,75,0.00,,,0.00,705,Wunderground v.1.15,2013-09-06 06:48:00,
2013-09-06 13:58:00,83.0,74.6,29.67,WSW,245,5.0,6.0,76,0.00,,,0.00,621,Wunderground v.1.15,2013-09-06 06:58:00,
2013-09-06 14:08:00,83.5,75.1,29.66,ESE,104,2.0,4.0,76,0.00,,,0.00,559,Wunderground v.1.15,2013-09-06 07:08:00,
2013-09-06 14:13:00,83.5,75.1,29.66,West,280,2.0,2.0,76,0.00,,,0.00,563,Wunderground v.1.15,2013-09-06 07:13:00,
2013-09-06 14:23:00,83.0,74.6,29.66,NE,53,2.0,2.0,76,0.00,,,0.00,427,Wunderground v.1.15,2013-09-06 07:23:00,
2013-09-06 14:33:00,83.3,74.9,29.66,East,86,1.0,1.0,76,0.00,,,0.00,476,Wunderground v.1.15,2013-09-06 07:33:00,
2013-09-06 14:43:00,82.9,73.8,29.66,North,1,2.0,2.0,74,0.00,,,0.00,348,Wunderground v.1.15,2013-09-06 07:43:00,
2013-09-06 14:53:00,82.6,73.1,29.65,North,359,1.0,1.0,73,0.00,,,0.00,250,Wunderground v.1.15,2013-09-06 07:53:00,
2013-09-06 15:03:00,82.2,71.0,29.64,SE,146,1.0,1.0,69,0.00,,,0.00,209,Wunderground v.1.15,2013-09-06 08:03:00,
2013-09-06 15:08:00,82.0,71.7,29.64,North,359,1.0,3.0,71,0.00,,,0.00,204,Wunderground v.1.15,2013-09-06 08:08:00,
2013-09-06 15:18:00,81.9,72.8,29.64,South,171,1.0,3.0,74,0.00,,,0.00,186,Wunderground v.1.15,2013-09-06 08:18:00,
2013-09-06 15:23:00,81.6,72.5,29.64,SSE,159,1.0,3.0,74,0.00,,,0.00,178,Wunderground v.1.15,2013-09-06 08:23:00,
2013-09-06 15:28:00,81.4,72.7,29.64,SW,233,2.0,4.0,75,0.00,,,0.00,167,Wunderground v.1.15,2013-09-06 08:28:00,
2013-09-06 15:38:00,80.9,71.4,29.63,SW,220,3.0,3.0,73,0.00,,,0.00,148,Wunderground v.1.15,2013-09-06 08:38:00,
2013-09-06 15:48:00,80.8,70.1,29.64,SE,134,1.0,4.0,70,0.00,,,0.00,128,Wunderground v.1.15,2013-09-06 08:48:00,
2013-09-06 15:58:00,80.7,70.8,29.64,South,178,2.0,2.0,72,0.00,,,0.00,114,Wunderground v.1.15,2013-09-06 08:58:00,
2013-09-06 16:03:00,80.8,70.1,29.63,SSE,166,2.0,2.0,70,0.00,,,0.00,107,Wunderground v.1.15,2013-09-06 09:03:00,
2013-09-06 16:13:00,81.0,70.7,29.63,SSE,166,1.0,1.0,71,0.00,,,0.00,100,Wunderground v.1.15,2013-09-06 09:13:00,
2013-09-06 16:23:00,80.8,71.3,29.63,SSW,197,1.0,5.0,73,0.00,,,0.00,97,Wunderground v.1.15,2013-09-06 09:23:00,
2013-09-06 16:33:00,80.8,71.7,29.61,SSE,154,1.0,1.0,74,0.00,,,0.00,90,Wunderground v.1.15,2013-09-06 09:33:00,
2013-09-06 16:43:00,80.8,72.1,29.61,SW,232,1.0,3.0,75,0.00,,,0.00,84,Wunderground v.1.15,2013-09-06 09:43:00,
2013-09-06 16:48:00,80.7,72.0,29.61,NNW,338,2.0,3.0,75,0.00,,,0.00,81,Wunderground v.1.15,2013-09-06 09:48:00,
2013-09-06 16:58:00,80.5,71.4,29.61,SSW,199,2.0,2.0,74,0.00,,,0.00,77,Wunderground v.1.15,2013-09-06 09:58:00,
2013-09-06 17:03:00,80.6,71.1,29.62,ENE,75,1.0,1.0,73,0.00,,,0.00,76,Wunderground v.1.15,2013-09-06 10:03:00,
2013-09-06 17:13:00,80.7,71.2,29.62,South,178,1.0,1.0,73,0.00,,,0.00,77,Wunderground v.1.15,2013-09-06 10:13:00,
2013-09-06 17:18:00,80.8,70.9,29.63,NNE,23,1.0,1.0,72,0.00,,,0.00,81,Wunderground v.1.15,2013-09-06 10:18:00,
2013-09-06 17:28:00,80.7,70.4,29.63,SSE,165,1.0,1.0,71,0.00,,,0.00,70,Wunderground v.1.15,2013-09-06 10:28:00,
2013-09-06 17:38:00,80.5,69.0,29.63,SE,131,1.0,1.0,68,0.00,,,0.00,44,Wunderground v.1.15,2013-09-06 10:38:00,
2013-09-06 17:43:00,80.5,67.2,29.63,SE,134,1.0,1.0,64,0.00,,,0.00,33,Wunderground v.1.15,2013-09-06 10:43:00,
2013-09-06 17:48:00,80.3,67.9,29.64,NW,318,0.0,2.0,66,0.00,,,0.00,25,Wunderground v.1.15,2013-09-06 10:48:00,
2013-09-06 17:58:00,80.1,65.0,29.64,SW,218,0.0,0.0,60,0.00,,,0.00,14,Wunderground v.1.15,2013-09-06 10:58:00,
2013-09-06 18:03:00,79.9,63.8,29.64,SSW,208,1.0,1.0,58,0.00,,,0.00,11,Wunderground v.1.15,2013-09-06 11:03:00,
2013-09-06 18:13:00,79.8,64.2,29.64,SSE,150,1.0,1.0,59,0.00,,,0.00,5,Wunderground v.1.15,2013-09-06 11:13:00,
2013-09-06 18:18:00,79.8,64.2,29.65,North,3,0.0,2.0,59,0.00,,,0.00,0,Wunderground v.1.15,2013-09-06 11:18:00,
2013-09-06 18:28:00,79.8,65.2,29.65,NNW,330,1.0,1.0,61,0.00,,,0.00,0,Wunderground v.1.15,2013-09-06 11:28:00,
2013-09-06 18:33:00,79.8,64.7,29.66,WSW,256,1.0,2.0,60,0.00,,,0.00,0,Wunderground v.1.15,2013-09-06 11:33:00,
2013-09-06 18:43:00,79.8,64.7,29.66,ESE,104,1.0,1.0,60,0.00,,,0.00,0,Wunderground v.1.15,2013-09-06 11:43:00,
2013-09-06 18:48:00,79.6,62.5,29.67,ESE,105,0.0,1.0,56,0.00,,,0.00,0,Wunderground v.1.15,2013-09-06 11:48:00,
2013-09-06 18:58:00,79.4,61.3,29.67,South,172,0.0,1.0,54,0.00,,,0.00,0,Wunderground v.1.15,2013-09-06 11:58:00,
2013-09-06 19:03:00,79.4,61.3,29.67,SE,140,0.0,0.0,54,0.00,,,0.00,0,Wunderground v.1.15,2013-09-06 12:03:00,
2013-09-06 19:13:00,79.6,62.0,29.67,SE,125,0.0,0.0,55,0.00,,,0.00,0,Wunderground v.1.15,2013-09-06 12:13:00,
2013-09-06 19:18:00,79.3,61.2,29.67,SE,127,0.0,0.0,54,0.00,,,0.00,0,Wunderground v.1.15,2013-09-06 12:18:00,
2013-09-06 19:28:00,79.2,59.0,29.67,SE,127,0.0,0.0,50,0.00,,,0.00,0,Wunderground v.1.15,2013-09-06 12:28:00,
2013-09-06 19:33:00,79.3,60.1,29.69,SE,130,0.0,0.0,52,0.00,,,0.00,0,Wunderground v.1.15,2013-09-06 12:33:00,
2013-09-06 19:43:00,79.2,60.1,29.69,SE,130,0.0,0.0,52,0.00,,,0.00,0,Wunderground v.1.15,2013-09-06 12:43:00,
2013-09-06 19:48:00,79.3,60.1,29.69,NE,51,0.0,1.0,52,0.00,,,0.00,0,Wunderground v.1.15,2013-09-06 12:48:00,
2013-09-06 19:58:00,79.4,62.8,29.69,ESE,102,1.0,1.0,57,0.00,,,0.00,0,Wunderground v.1.15,2013-09-06 12:58:00,
2013-09-06 20:03:00,79.4,62.8,29.70,East,82,0.0,2.0,57,0.00,,,0.00,0,Wunderground v.1.15,2013-09-06 13:03:00,
2013-09-06 20:13:00,79.1,61.0,29.70,SSE,148,0.0,1.0,54,0.00,,,0.00,0,Wunderground v.1.15,2013-09-06 13:13:00,
2013-09-06 20:18:00,79.2,61.6,29.71,SSE,158,0.0,1.0,55,0.00,,,0.00,0,Wunderground v.1.15,2013-09-06 13:18:00,
2013-09-06 20:28:00,79.2,61.6,29.71,WNW,283,0.0,0.0,55,0.00,,,0.00,0,Wunderground v.1.15,2013-09-06 13:28:00,
2013-09-06 20:33:00,79.1,61.0,29.72,South,184,0.0,0.0,54,0.00,,,0.00,0,Wunderground v.1.15,2013-09-06 13:33:00,
2013-09-06 20:43:00,79.0,57.0,29.72,NE,53,0.0,0.0,47,0.00,,,0.00,0,Wunderground v.1.15,2013-09-06 13:43:00,
2013-09-06 20:48:00,78.9,57.5,29.72,ENE,58,0.0,0.0,48,0.00,,,0.00,0,Wunderground v.1.15,2013-09-06 13:48:00,
2013-09-06 20:58:00,79.2,57.8,29.72,SE,141,0.0,0.0,48,0.00,,,0.00,0,Wunderground v.1.15,2013-09-06 13:58:00,
2013-09-06 21:03:00,79.4,58.0,29.74,SW,229,0.0,0.0,48,0.00,,,0.00,0,Wunderground v.1.15,2013-09-06 14:03:00,
2013-09-06 21:13:00,79.5,58.7,29.74,North,1,0.0,0.0,49,0.00,,,0.00,0,Wunderground v.1.15,2013-09-06 14:13:00,
2013-09-06 21:18:00,79.5,57.5,29.74,North,1,0.0,0.0,47,0.00,,,0.00,0,Wunderground v.1.15,2013-09-06 14:18:00,
2013-09-06 21:28:00,79.2,53.5,29.74,SE,142,0.0,0.0,41,0.00,,,0.00,0,Wunderground v.1.15,2013-09-06 14:28:00,
2013-09-06 21:33:00,79.1,51.3,29.75,North,8,0.0,0.0,38,0.00,,,0.00,0,Wunderground v.1.15,2013-09-06 14:33:00,
2013-09-06 21:43:00,79.2,48.4,29.75,North,8,0.0,0.0,34,0.00,,,0.00,0,Wunderground v.1.15,2013-09-06 14:43:00,
2013-09-06 21:49:00,79.2,48.4,29.75,North,8,0.0,0.0,34,0.00,,,0.00,0,Wunderground v.1.15,2013-09-06 14:49:00,
2013-09-06 21:58:00,79.2,40.3,29.75,WNW,292,0.0,0.0,25,0.00,,,0.01,0,Wunderground v.1.15,2013-09-06 14:58:00,
2013-09-06 22:09:00,78.8,17.6,29.76,NNW,338,0.0,1.0,10,0.50,,,0.04,0,Wunderground v.1.15,2013-09-06 15:09:00,
2013-09-06 22:19:00,78.4,-99.9,29.77,SSW,212,0.0,0.0,0,0.55,,,0.15,0,Wunderground v.1.15,2013-09-06 15:19:00,
2013-09-06 22:28:00,78.1,-99.9,29.77,South,181,0.0,2.0,0,0.12,,,0.17,0,Wunderground v.1.15,2013-09-06 15:28:00,
2013-09-06 22:34:00,77.8,-99.9,29.76,SE,125,2.0,2.0,0,0.06,,,0.17,0,Wunderground v.1.15,2013-09-06 15:34:00,
2013-09-06 22:43:00,77.9,-99.9,29.76,South,176,3.0,3.0,0,0.00,,,0.17,0,Wunderground v.1.15,2013-09-06 15:43:00,
2013-09-06 22:49:00,77.8,-99.9,29.76,NE,46,2.0,3.0,0,0.00,,,0.17,0,Wunderground v.1.15,2013-09-06 15:49:00,
2013-09-06 22:58:00,77.7,-99.9,29.76,SSW,206,1.0,2.0,0,0.00,,,0.17,0,Wunderground v.1.15,2013-09-06 15:58:00,
2013-09-06 23:04:00,77.5,-99.9,29.75,SSE,147,1.0,1.0,0,0.00,,,0.17,0,Wunderground v.1.15,2013-09-06 16:04:00,
2013-09-06 23:13:00,77.4,-99.9,29.75,NNE,24,1.0,2.0,0,0.00,,,0.17,0,Wunderground v.1.15,2013-09-06 16:13:00,
2013-09-06 23:19:00,77.6,-99.9,29.75,East,101,0.0,2.0,0,0.00,,,0.17,0,Wunderground v.1.15,2013-09-06 16:19:00,
2013-09-06 23:28:00,77.5,-99.9,29.75,NNW,338,0.0,0.0,0,0.00,,,0.17,0,Wunderground v.1.15,2013-09-06 16:28:00,
2013-09-06 23:34:00,77.6,-99.9,29.74,NNW,338,0.0,0.0,0,0.00,,,0.17,0,Wunderground v.1.15,2013-09-06 16:34:00,
2013-09-06 23:43:00,77.8,-99.9,29.74,NNE,32,0.0,0.0,0,0.00,,,0.17,0,Wunderground v.1.15,2013-09-06 16:43:00,
2013-09-06 23:49:00,77.7,-99.9,29.74,North,11,0.0,0.0,0,0.00,,,0.17,0,Wunderground v.1.15,2013-09-06 16:49:00,
2013-09-06 23:58:00,77.7,-99.9,29.74,North,11,0.0,0.0,0,0.00,,,0.17,0,Wunderground v.1.15,2013-09-06 16:58:00,